Theta_e
332 332 333 333 335 332 328 322 318 318 317 319 326 328 331 331 327 322 319 320 321 322 325 328 329 328 327 328 327 332 333 333
327 330 331 331 332 334 335 332 330 325 320 321 332 334 335 334 333 330 324 319 317 317 318 321 324 325 326 327 328 333 330 334
321 324 326 325 327 327 327 330 332 333 330 324 332 334 333 335 335 333 330 333 328 325 326 322 316 318 322 325 330 333 332 334
317 312 321 321 321 321 321 322 322 326 332 333 331 329 331 328 329 331 332 334 335 335 333 332 330 329 329 328 329 333 328 333
314 312 308 317 316 317 316 315 317 316 316 320 328 329 332 332 331 330 329 326 333 334 334 335 334 332 328 327 329 333 332 333
313 311 308 309 314 312 313 313 312 311 305 305 310 317 321 323 325 327 330 330 328 330 331 333 333 330 332 330 325 331 330 333
311 308 308 310 307 311 309 312 310 310 303 303 304 305 309 316 319 321 321 322 328 330 329 329 331 333 332 332 330 331 329 332
309 306 307 310 310 310 309 310 310 310 306 302 302 303 308 313 313 308 308 317 319 321 325 326 328 329 331 333 332 332 333 335
308 309 306 308 308 309 309 309 309 308 305 302 302 302 306 310 308 305 312 313 314 312 317 322 322 325 329 329 331 329 330 331
308 309 308 309 309 309 309 308 309 308 305 302 301 301 303 308 303 304 308 309 307 306 310 314 315 316 320 321 327 327 327 327
308 306 307 307 308 308 308 308 308 308 303 299 299 299 300 303 304 301 305 304 301 301 303 309 313 313 312 313 316 320 325 328
309 308 307 307 306 306 306 306 306 306 306 300 298 298 300 298 300 300 301 304 298 299 299 305 311 310 307 308 308 318 323 328
308 308 307 307 307 306 307 307 306 305 305 305 302 300 298 299 298 299 299 304 299 298 297 299 308 308 306 303 317 323 323 326
309 309 308 307 308 307 307 306 306 306 306 306 305 303 300 298 298 297 298 303 297 297 297 297 302 307 308 305 307 314 314 319
309 309 308 306 308 308 308 307 308 308 307 307 307 306 304 302 301 300 299 303 299 299 297 297 298 303 306 307 309 311 311 313
309 309 308 308 308 308 308 308 308 308 308 308 307 307 307 306 302 302 301 301 301 301 300 298 298 298 300 305 306 307 309 312
309 309 309 308 309 309 309 309 309 308 309 308 308 307 307 307 306 303 302 302 302 302 302 301 301 300 298 298 303 305 305 306
310 310 309 309 309 309 310 309 309 309 308 308 308 307 307 307 307 307 306 305 304 303 302 302 302 302 301 300 298 302 304 304
310 310 309 309 309 309 309 309 309 309 309 309 308 308 308 308 307 307 307 307 306 305 304 304 304 304 303 302 301 300 300 303
309 309 309 309 308 308 308 309 309 309 309 309 309 310 310 309 309 309 308 308 308 307 307 306 305 305 305 304 304 303 301 301
Wind_Speed
9 9 9 11 11 10 10 9 8 7 7 9 12 13 16 15 15 12 11 9 7 6 6 5 5 6 6 6 8 8 8 5
13 10 14 12 14 11 9 8 8 8 6 7 6 5 9 10 15 18 15 14 12 11 9 8 7 6 6 7 4 7 7 10
10 8 12 16 16 18 17 13 11 8 6 0 4 4 5 6 10 9 10 10 13 13 14 15 11 8 5 9 2 6 8 6
14 10 9 13 7 11 15 15 17 13 9 6 5 4 5 8 9 8 6 6 8 7 10 12 10 6 13 10 7 6 6 7
11 10 9 10 10 6 11 10 12 12 10 8 7 7 6 9 10 10 9 10 7 1 7 10 8 10 14 11 11 10 9 13
11 10 10 9 9 9 9 13 10 14 14 12 10 9 9 15 17 15 12 11 13 13 11 10 8 7 14 15 15 13 8 16
10 11 13 13 14 13 13 15 15 14 16 15 12 11 11 11 10 10 15 13 13 14 14 17 14 10 9 12 13 9 10 14
13 14 12 13 15 15 14 16 13 14 16 17 15 14 14 13 11 12 14 16 15 12 14 16 17 19 18 13 12 16 17 11
12 11 13 13 14 12 13 14 13 13 15 17 17 16 14 14 13 14 15 13 12 11 7 6 13 17 21 24 19 19 23 21
12 10 12 13 14 16 16 16 14 14 15 17 18 17 15 15 16 15 14 10 14 12 10 10 12 17 17 16 21 27 27 29
10 12 14 15 16 15 14 14 15 16 16 17 17 17 16 13 16 17 15 16 16 17 16 12 17 22 20 17 14 18 20 26
11 11 13 13 11 8 9 12 12 13 17 18 17 17 15 16 14 16 15 18 19 18 18 11 17 25 23 20 16 15 14 19
8 10 11 10 11 10 10 10 13 14 15 20 20 17 17 17 17 16 16 16 20 20 20 17 13 23 25 18 15 15 7 9
6 7 9 8 10 9 8 11 11 12 13 15 18 18 18 18 18 18 17 16 20 21 23 20 15 20 26 20 16 9 13 12
3 5 6 9 12 8 10 8 10 11 13 16 16 21 20 21 20 20 19 16 20 19 20 19 20 15 16 18 12 10 30 9
3 3 4 6 8 8 10 9 9 11 12 12 14 17 19 20 22 22 21 19 20 21 21 19 17 16 14 9 11 15 20 21
4 2 3 4 6 8 8 9 9 10 11 13 12 14 17 18 22 22 20 20 20 21 22 22 21 18 16 15 10 12 14 19
3 2 0 4 6 8 9 10 12 15 13 16 14 16 16 17 21 25 21 19 22 22 22 22 22 22 22 19 15 12 16 18
4 1 2 5 7 9 10 12 14 16 17 18 18 19 19 20 21 27 23 22 24 23 24 24 22 21 25 24 21 19 16 15
2 3 4 5 8 10 11 13 14 15 16 20 21 21 21 23 23 20 24 29 27 27 26 27 26 23 26 27 25 25 22 18
Wind_Direction
12 6 16 21 21 26 22 26 31 37 46 54 45 38 25 10 5 1 352 347 343 339 333 336 348 2 11 25 63 88 78 60
32 28 24 26 18 18 10 359 9 17 25 78 57 34 355 350 1 353 351 352 348 344 334 318 312 323 352 10 57 65 51 11
12 35 65 23 12 11 13 11 357 4 13 21 338 92 57 79 334 316 338 3 357 353 0 351 326 313 339 357 20 11 357 334
11 22 74 63 28 32 16 15 12 358 357 346 341 304 268 267 270 287 305 319 325 325 335 352 353 3 335 303 323 320 338 288
35 25 48 76 27 58 41 8 24 351 360 360 19 357 333 311 322 310 303 307 299 74 298 303 296 303 291 292 300 294 279 301
26 29 47 59 57 28 68 12 33 1 6 11 19 3 17 25 7 351 320 291 294 301 285 272 293 275 294 314 255 247 240 303
38 33 47 49 44 44 48 46 35 14 25 28 24 21 33 35 18 1 338 349 332 305 285 273 272 263 271 263 278 278 275 277
30 29 56 49 59 36 38 47 33 31 19 29 31 38 47 34 358 356 11 18 1 340 341 342 306 267 255 265 256 236 255 253
64 29 41 56 50 58 34 51 32 29 21 28 30 33 35 28 13 23 41 13 332 323 313 316 323 302 272 267 263 258 252 247
44 48 54 34 56 33 32 39 28 22 21 25 30 30 32 35 20 29 26 7 355 2 2 342 331 348 329 314 284 260 259 257
50 41 44 50 39 41 23 36 24 13 13 23 26 28 34 33 18 22 23 6 10 10 5 16 9 336 316 310 291 295 292 273
36 41 54 42 47 57 43 16 31 16 1 14 20 25 30 27 29 16 24 5 10 10 10 25 23 347 336 322 311 276 285 288
59 31 49 52 38 31 36 35 25 14 13 358 6 14 24 21 26 20 25 19 9 15 13 10 16 5 348 349 28 26 296 297
46 46 25 75 39 37 17 36 26 18 11 1 355 13 18 22 20 19 21 19 13 15 12 10 22 22 3 2 350 353 53 46
55 53 27 52 64 40 53 44 18 19 12 10 1 3 13 17 18 16 18 18 6 11 8 13 9 21 24 10 356 340 337 288
117 79 74 18 61 35 38 32 18 10 359 6 0 356 359 355 9 11 12 14 7 6 4 4 4 8 6 13 352 330 323 322
172 126 37 10 24 17 20 2 359 347 344 356 339 352 346 338 337 350 356 357 357 356 357 358 354 351 352 348 342 335 313 328
179 146 312 334 341 342 342 339 335 330 340 336 327 332 330 326 323 327 334 335 337 338 340 341 343 339 339 337 331 320 322 316
207 165 316 320 328 334 331 327 324 326 322 321 312 311 311 317 311 317 317 318 320 319 321 325 325 319 322 324 323 317 308 301
228 235 290 302 316 312 306 305 312 307 306 298 303 313 310 305 312 305 303 307 310 311 311 312 316 306 305 311 312 310 312 303